Regional Weather Roundup
Issued by NWS

Home | Current Version | Previous Version | Graphics & Text | Print | Product List | Glossary On
Versions: 1 2 3 4 5 6 7 8 9 10 11 12 13 14 15 16 17 18 19 20 21 22 23 24 25 26 27 28 29 30 31 32 33 34 35 36 37 38 39 40 41 42 43 44 45 46 47 48 49 50
000
ASUS45 KCYS 251610
RWRWY

WYOMING REGIONAL WEATHER ROUNDUP
NATIONAL WEATHER SERVICE CHEYENNE WY
1000 AM MDT WED MAY 25 2016

NOTE:  "FAIR" INDICATES FEW OR NO CLOUDS BELOW 12,000 FEET
WITH NO SIGNIFICANT WEATHER AND/OR OBSTRUCTIONS TO VISIBILITY.

WYZ001-251700-
YELLOWSTONE NATIONAL PARK

CITY           SKY/WX    TMP DP  RH WIND       PRES   REMARKS
LK YELLOWSTONE   N/A     35  33  92 CALM      30.06R
W YELLOWSTONE  NOT AVBL

$$
WYZ002>013-054>058-071-098>099-251700-
NORTHERN WYOMING

CITY           SKY/WX    TMP DP  RH WIND       PRES   REMARKS
JACKSON        PTSUNNY   45  41  87 S12       30.04R
CODY           PTSUNNY   50  45  81 E5        29.94S
GREYBULL       CLOUDY    55  48  77 CALM      29.92S
WORLAND        FAIR      55  46  71 W5        29.93S
SHERIDAN       FAIR      57  45  64 E5        29.92S
BUFFALO        PTSUNNY   51  42  71 S8        29.95S
GILLETTE       CLOUDY    52  46  80 NW6       29.92S
HULETT         CLOUDY    50  45  81 W6        29.92S
NEWCASTLE      PTSUNNY   52  45  76 W8        29.93S

$$
WYZ014>020-022>026-101>103-251700-
CENTRAL WYOMING

CITY           SKY/WX    TMP DP  RH WIND       PRES   REMARKS
BIG PINEY      PTSUNNY   47  38  71 CALM      30.05S
PINEDALE       CLOUDY    43  36  75 S5        30.06S
DUBOIS         PTSUNNY   45  34  65 NW16G24   30.00S
LANDER         FAIR      55  40  56 E5        29.94S
RIVERTON       FAIR      55  42  61 VRB6      29.96R
CASPER         FAIR      60  34  37 SW22G30   29.94S
DOUGLAS          N/A    N/A N/A N/A MISG      29.94F

$$
WYZ021-027>030-104>119-251700-
SOUTHERN WYOMING

CITY           SKY/WX    TMP DP  RH WIND       PRES   REMARKS
EVANSTON       FAIR      47  36  65 W10       30.08R
KEMMERER         N/A     46  37  71 W16G23    30.08R
FORT BRIDGER   MOSUNNY   52  37  58 W16G22    30.10R
ROCK SPRINGS   FAIR      51  34  52 SW10G20   30.06R
DIXON          PTSUNNY   56  33  42 W18       30.09S
RAWLINS        FAIR      53  34  48 SW15G24   30.05R
SARATOGA       FAIR      54  32  43 W21       30.07R
LARAMIE        PTSUNNY   56  23  27 W18G35    30.03S
CHEYENNE       CLOUDY    59  28  30 W15       30.01S
TORRINGTON     FAIR      64  44  48 SW9       29.93F
PINE BLUFFS    FAIR      64  36  34 W12G18    29.99S

$$



USA.gov is the U.S. government's official web portal to all federal, state and local government web resources and services.